Weather History for Laramie, WY

Change the Weather History Date:

Wednesday, November 21, 2012

  Actual Average Record
Temperature  
Mean Temperature 48 °F 27 °F  
Max Temperature 59 °F 38 °F 59 °F (2006)
Min Temperature 36 °F 15 °F -16 °F (1953)
Degree Days  
Heating Degree Days 17 38  
Month to date heating degree days 556 706  
Since 1 July heating degree days 1621 1949  
Cooling Degree Days 0 0  
Month to date cooling degree days 0 0  
Year to date cooling degree days 211 67  
Moisture  
Dew Point 13 °F    
Average Humidity 27    
Maximum Humidity 40    
Minimum Humidity 14    
Precipitation  
Precipitation 0.00 in 0.02 in 0.34 in (1967)
Month to date precipitation 0.16 0.41  
Year to date precipitation 6.06 10.47  
Sea Level Pressure  
Sea Level Pressure 29.86 in    
Wind  
Wind Speed 18 mph (SW)    
Max Wind Speed 33 mph    
Max Gust Speed 39 mph    
Visibility 10 miles    
Events      
T = Trace of Precipitation, MM = Missing Value Source: NWS Daily Summary

Daily Weather History Graph

Daily Weather History Graph

Search for Another Location

Airport:

Trip Planner

Search our weather history database for the weather conditions in past years. The results will help you decide how hot, cold, wet, or windy it might be!

Date:

Astronomy

Nov. 21, 2012 Rise Set
Actual Time 6:58 AM MST 4:38 PM MST
Civil Twilight 6:28 AM MST 5:08 PM MST
Nautical Twilight 5:54 AM MST 5:42 PM MST
Astronomical Twilight 5:21 AM MST 6:15 PM MST
Moon 12:59 PM MST (11/21) 12:16 AM MST (11/21)
Length of Visible Light 10h 40m
Length of Day
9h 39m
Waxing Gibbous, 62% of the Moon is Illuminated
Nov 21
Waxing Gibbous
Nov 28
Full
Dec 6
Last Quarter
Dec 13
New
Dec 19
First Quarter

Hourly Weather History & Observations

Time (MST) Temp. Windchill Dew Point Humidity Pressure Visibility Wind Dir Wind Speed Gust Speed Precip Events Conditions
12:53 AM 42.1 °F 35.2 °F 18.0 °F 38% 29.94 in 10.0 mi WSW 12.7 mph 21.9 mph N/A   Clear
1:53 AM 42.1 °F 32.8 °F 17.1 °F 37% 29.91 in 10.0 mi SW 21.9 mph - N/A   Clear
2:53 AM 42.1 °F 32.1 °F 16.0 °F 35% 29.92 in 10.0 mi SW 25.3 mph - N/A   Clear
3:53 AM 42.1 °F 32.6 °F 15.1 °F 34% 29.93 in 10.0 mi WSW 23.0 mph 31.1 mph N/A   Clear
4:53 AM 42.1 °F 32.3 °F 14.0 °F 32% 29.92 in 10.0 mi WSW 24.2 mph - N/A   Clear
5:53 AM 39.9 °F 30.5 °F 14.0 °F 35% 29.94 in 10.0 mi WSW 19.6 mph 28.8 mph N/A   Clear
6:53 AM 39.0 °F 31.0 °F 12.9 °F 34% 29.97 in 10.0 mi SW 13.8 mph - N/A   Clear
7:53 AM 41.0 °F 31.9 °F 12.9 °F 32% 29.96 in 10.0 mi SW 19.6 mph - N/A   Clear
8:53 AM 44.1 °F 35.2 °F 12.0 °F 27% 29.94 in 10.0 mi WSW 23.0 mph - N/A   Clear
9:53 AM 46.0 °F 39.3 °F 10.9 °F 24% 29.95 in 10.0 mi SW 16.1 mph 21.9 mph N/A   Clear
10:53 AM 53.1 °F - 10.9 °F 19% 29.83 in 10.0 mi SW 32.2 mph 39.1 mph N/A   Clear
11:53 AM 57.9 °F - 10.0 °F 15% 29.77 in 10.0 mi SW 23.0 mph 31.1 mph N/A   Clear
12:53 PM 57.9 °F - 8.1 °F 14% 29.76 in 10.0 mi SW 24.2 mph 33.4 mph N/A   Clear
1:53 PM 57.0 °F - 9.0 °F 15% 29.75 in 10.0 mi SW 21.9 mph - N/A   Clear
2:53 PM 57.0 °F - 10.0 °F 15% 29.74 in 10.0 mi WSW 24.2 mph 34.5 mph N/A   Clear
3:53 PM 54.0 °F - 10.9 °F 18% 29.77 in 10.0 mi West 16.1 mph - N/A   Clear
4:53 PM 44.1 °F 38.6 °F 12.9 °F 28% 29.83 in 10.0 mi SW 10.4 mph - N/A   Clear
5:53 PM 42.1 °F 36.1 °F 12.9 °F 31% 29.85 in 10.0 mi SW 10.4 mph - N/A   Clear
6:53 PM 41.0 °F 32.8 °F 12.9 °F 32% 29.86 in 10.0 mi South 16.1 mph - N/A   Clear
7:53 PM 41.0 °F 33.9 °F 12.9 °F 32% 29.84 in 10.0 mi South 12.7 mph - N/A   Clear
8:53 PM 42.1 °F 40.2 °F 12.9 °F 31% 29.85 in 10.0 mi South 3.5 mph - N/A   Clear
9:53 PM 39.9 °F 32.5 °F 15.1 °F 36% 29.83 in 10.0 mi WSW 12.7 mph - N/A   Clear
10:53 PM 37.9 °F 30.5 °F 15.1 °F 39% 29.80 in 10.0 mi WSW 11.5 mph - N/A   Clear
11:53 PM 36.0 °F 28.5 °F 15.1 °F 43% 29.80 in 10.0 mi West 10.4 mph - N/A   Clear